• MPC Preparation (Info)

  • MPEC 2022-S317 : 2022 SG19

    The following Minor Planet Electronic Circular may be linked-to from your own Web pages, but must not otherwise be redistributed electronically.

    A form allowing access to any MPEC is at the bottom of this page.


    Read MPEC 2022-S316 Read MPEC 2022-S318


    M.P.E.C. 2022-S317                           Issued 2022 September 28, 11:19 UT
    
         The Minor Planet Electronic Circulars contain information on unusual
             minor planets and routine data on comets.  They are published
        on behalf of Division F of the International Astronomical Union by the
              Minor Planet Center, Smithsonian Astrophysical Observatory,
                              Cambridge, MA 02138, U.S.A.
    
                 Prepared using the Tamkin Foundation Computer Network
    
                                  MPC@CFA.HARVARD.EDU
                URL https://www.minorplanetcenter.net/    ISSN 1523-6714
    
                                    2022 SG19                                
    
    
    Observations:
         K22S19G* C2022 09 26.41060401 27 01.667+03 11 27.82         20.64GVES317G96
         K22S19G  C2022 09 26.41579201 26 57.808+03 13 14.70         19.90GVES317G96
         K22S19G  C2022 09 26.42097901 26 53.981+03 15 02.74         20.69GVES317G96
         K22S19G  C2022 09 26.42616301 26 50.176+03 16 50.16         20.17GVES317G96
         K22S19G KC2022 09 26.47392901 26 15.673+03 33 07.31         20.54GVES317I52
         K22S19G KC2022 09 26.47457901 26 15.191+03 33 20.74         20.44GVES317I52
         K22S19G KC2022 09 26.47523801 26 14.687+03 33 33.73         21.37GVES317I52
         K22S19G KC2022 09 26.47589001 26 14.266+03 33 47.12         20.49GVES317I52
         K22S19G KC2022 09 27.27849501 18 25.150+07 40 59.20         20.61GVES317I52
         K22S19G KC2022 09 27.27938601 18 24.566+07 41 13.56         20.61GVES317I52
         K22S19G KC2022 09 27.28027701 18 24.044+07 41 28.43         21.29GVES317I52
         K22S19G 1C2022 09 27.96854 01 12 28.69 +10 37 17.9          21.3 VXES317033
         K22S19G 1C2022 09 27.96958 01 12 28.17 +10 37 32.4          21.0 VXES317033
         K22S19G 1C2022 09 27.97062 01 12 27.62 +10 37 47.6          20.9 VXES317033
         K22S19G 1C2022 09 27.97172 01 12 27.03 +10 38 02.7          20.6 VXES317033
         K22S19G KC2022 09 28.39827901 09 06.980+12 14 36.70         21.24GVES317I52
         K22S19G KC2022 09 28.40129301 09 05.490+12 15 15.20         21.87GVES317I52
         K22S19G KC2022 09 28.40260101 09 04.860+12 15 31.60               VES317I52
    
    Observer details:
    033 Karl Schwarzschild Observatory, Tautenburg.  Observers S. Melnikov, C.
        Hoegner, F. Ludwig, B. Stecklum.  Measurer B. Stecklum.  1.34-m f/3
        Schmidt + CCD.
    G96 Mt. Lemmon Survey.  Observer D. C. Fuls.  Measurers E. J. Christensen, D.
        Fay, J. B. Fazekas, D. C. Fuls, A. R. Gibbs, A. D. Grauer, H. Groeller, J.
        K. Hogan, R. A. Kowalski, S. M. Larson, G. J. Leonard, D. Rankin, R. L.
        Seaman, A. Serrano, F. C. Shelly, K. W. Wierzchos.  1.5-m reflector + 10K
        CCD.
    I52 Steward Observatory, Mt. Lemmon Station.  Observers G. J. Leonard, D.
        Rankin.  Measurers E. J. Christensen, D. Fay, J. B. Fazekas, D. C. Fuls,
        A. R. Gibbs, A. D. Grauer, H. Groeller, J. K. Hogan, R. A. Kowalski, S. M.
        Larson, G. J. Leonard, D. Rankin, R. L. Seaman, A. Serrano, F. C. Shelly,
        K. W. Wierzchos.  1.0-m prime focus + CCD.
    
    Orbital elements:
    2022 SG19                                                Earth MOID = 0.0265 AU
    Epoch 2022 Aug. 9.0 TT = JDT 2459800.5                  Veres                   
    M 357.33897              (2000.0)            P               Q                  
    n   0.47921460     Peri.  306.22138     +0.65347049     +0.75675309             
    a   1.6172706      Node     4.69606     -0.60852727     +0.53883195             
    e   0.4330503      Incl.   12.23624     -0.45018983     +0.37011470             
    P   2.06           H   26.80          G   0.15           U   8                  
    Residuals in seconds of arc
    220926 G96  0.5+  0.9-    220926 I52  0.6-  0.0     220927 033  0.0   0.3+
    220926 G96 (0.1+  1.2-)   220926 I52  0.0   0.1+    220927 033  0.0   0.7+
    220926 G96  0.1-  0.2-    220927 I52  0.1+  0.2+    220927 033  0.2-  0.2+
    220926 G96  0.1-  0.4+    220927 I52  0.4-  0.4-    220928 I52  0.0   0.1-
    220926 I52  0.2+  0.2+    220927 I52  0.0   0.5-    220928 I52  0.0   0.0
    220926 I52  0.1-  0.4+    220927 033  0.3-  0.5+    220928 I52  0.3+  0.2-
    
    Ephemeris:
    2022 SG19                a,e,i = 1.62, 0.43, 12                  q = 0.9169
    Date    TT    R. A. (2000) Decl.     Delta      r    Elong.  Phase     V
    2022 08 29    11 27 30.6 -45 58 30   0.1606  0.9326    57.1   114.6    27.1
    ...
    2022 09 13    10 14 46.2 -58 13 12   0.06527 0.9792    63.7   112.9    25.2
    ...
    2022 09 21    03 47 41.6 -49 22 21   0.02792 1.0142   110.3    68.2    21.5
    ...
    2022 09 27    01 20 58.8 +06 21 57   0.04360 1.0442   162.4    16.9    21.0
    2022 09 28    01 12 12.6 +10 46 25   0.04908 1.0494   163.6    15.7    21.2
    2022 09 29    01 05 01.7 +14 15 26   0.05487 1.0547   163.6    15.5    21.5
    ...
    2022 10 05    00 39 59.6 +25 05 51   0.09315 1.0879   159.4    18.9    22.8
    ...
    2022 10 13    00 26 33.6 +29 48 01   0.1489  1.1350   155.4    21.5    24.0
    ...
    2022 10 28    00 21 20.5 +31 31 51   0.2648  1.2288   149.3    24.4    25.5
    
    M. P. C. Staff               (C) Copyright 2022 MPC           M.P.E.C. 2022-S317
    


    Read MPEC 2022-S316 Read MPEC 2022-S318


    MPEC number:

    Enter an MPEC number in one of the following forms:

    • 1997-B01 (the full form)
    • J97B01 (the packed version of the full form)
    • B01 (the abbreviated form)